TimeCDT,TemperatureF,Dew PointF,Humidity,Sea Level PressureIn,VisibilityMPH,Wind Direction,Wind SpeedMPH,Gust SpeedMPH,PrecipitationIn,Events,Conditions,WindDirDegrees,DateUTC
12:53 AM,75.0,72.0,90,30.00,10.0,Calm,Calm,-,N/A,,Clear,0,2013-08-20 05:53:00
1:53 AM,75.0,72.0,90,29.99,10.0,Calm,Calm,-,N/A,,Clear,0,2013-08-20 06:53:00
2:53 AM,75.0,72.0,90,29.99,10.0,Calm,Calm,-,N/A,,Clear,0,2013-08-20 07:53:00
3:53 AM,73.0,71.1,93,29.98,8.0,Calm,Calm,-,N/A,,Clear,0,2013-08-20 08:53:00
4:29 AM,73.4,71.6,94,29.98,7.0,Calm,Calm,-,N/A,,Scattered Clouds,0,2013-08-20 09:29:00
4:41 AM,73.4,73.4,100,29.99,2.5,Calm,Calm,-,N/A,,Mostly Cloudy,0,2013-08-20 09:41:00
4:44 AM,73.4,73.4,100,29.98,1.0,Calm,Calm,-,N/A,,Mist,0,2013-08-20 09:44:00
4:53 AM,73.9,72.0,93,29.99,0.8,Calm,Calm,-,N/A,,Mist,0,2013-08-20 09:53:00
4:59 AM,73.4,71.6,94,29.99,2.5,Calm,Calm,-,N/A,,Overcast,0,2013-08-20 09:59:00
5:06 AM,73.4,71.6,94,29.99,3.0,Calm,Calm,-,N/A,,Overcast,0,2013-08-20 10:06:00
5:11 AM,73.4,71.6,94,29.99,1.8,Calm,Calm,-,N/A,,Overcast,0,2013-08-20 10:11:00
5:17 AM,73.4,71.6,94,29.99,0.8,Calm,Calm,-,N/A,,Mist,0,2013-08-20 10:17:00
5:32 AM,73.4,71.6,94,29.99,0.8,Calm,Calm,-,N/A,,Mist,0,2013-08-20 10:32:00
5:39 AM,73.4,71.6,94,29.99,0.8,Calm,Calm,-,N/A,,Mist,0,2013-08-20 10:39:00
5:53 AM,73.9,72.0,93,30.00,0.8,Calm,Calm,-,N/A,,Mist,0,2013-08-20 10:53:00
6:00 AM,73.4,71.6,94,30.00,1.0,Calm,Calm,-,N/A,,Mist,0,2013-08-20 11:00:00
6:21 AM,73.4,71.6,94,30.00,0.5,Calm,Calm,-,N/A,Fog,Fog,0,2013-08-20 11:21:00
6:42 AM,73.4,73.4,100,30.01,1.5,Calm,Calm,-,N/A,,Overcast,0,2013-08-20 11:42:00
6:53 AM,73.9,73.0,97,30.01,1.8,Calm,Calm,-,N/A,,Overcast,0,2013-08-20 11:53:00
7:12 AM,73.4,73.4,100,30.02,3.0,Calm,Calm,-,N/A,,Overcast,0,2013-08-20 12:12:00
7:41 AM,75.2,73.4,94,30.02,7.0,Calm,Calm,-,N/A,,Mostly Cloudy,0,2013-08-20 12:41:00
7:53 AM,75.0,73.9,96,30.03,8.0,Calm,Calm,-,N/A,,Scattered Clouds,0,2013-08-20 12:53:00
8:53 AM,80.1,75.9,87,30.04,10.0,Calm,Calm,-,N/A,,Scattered Clouds,0,2013-08-20 13:53:00
9:53 AM,82.9,75.0,77,30.05,10.0,Calm,Calm,-,N/A,,Partly Cloudy,0,2013-08-20 14:53:00
10:53 AM,86.0,73.9,67,30.05,10.0,South,4.6,-,N/A,,Scattered Clouds,190,2013-08-20 15:53:00
11:53 AM,88.0,73.0,61,30.04,10.0,Variable,3.5,-,N/A,,Scattered Clouds,0,2013-08-20 16:53:00
12:53 PM,88.0,71.1,57,30.04,10.0,SSE,3.5,-,N/A,,Partly Cloudy,160,2013-08-20 17:53:00
1:53 PM,82.0,73.0,74,30.04,10.0,Variable,5.8,-,0.01,,Overcast,0,2013-08-20 18:53:00
2:00 PM,82.4,73.4,74,30.05,10.0,Variable,6.9,-,0.00,Rain-Thunderstorm,Heavy Thunderstorms and Rain,0,2013-08-20 19:00:00
2:12 PM,80.6,73.4,79,30.05,10.0,NE,9.2,-,0.00,Rain-Thunderstorm,Heavy Thunderstorms and Rain,40,2013-08-20 19:12:00
2:32 PM,84.2,71.6,66,30.04,10.0,North,9.2,-,0.00,,Scattered Clouds,360,2013-08-20 19:32:00
2:53 PM,84.9,71.1,63,30.04,10.0,NNW,11.5,-,0.00,,Clear,340,2013-08-20 19:53:00
3:53 PM,77.0,72.0,84,30.03,10.0,ENE,4.6,-,0.02,Rain,Light Rain,60,2013-08-20 20:53:00
4:53 PM,84.9,71.1,63,30.02,10.0,North,8.1,-,0.00,,Clear,350,2013-08-20 21:53:00
5:53 PM,86.0,71.1,61,30.01,10.0,North,3.5,-,N/A,,Clear,350,2013-08-20 22:53:00
6:53 PM,82.9,73.0,72,30.02,10.0,NE,3.5,-,N/A,,Clear,50,2013-08-20 23:53:00
7:53 PM,79.0,73.9,84,30.01,10.0,NE,4.6,-,N/A,,Clear,40,2013-08-21 00:53:00
8:53 PM,77.0,73.9,90,30.02,10.0,Calm,Calm,-,N/A,,Clear,0,2013-08-21 01:53:00
9:53 PM,75.9,73.0,91,30.04,10.0,Calm,Calm,-,N/A,,Clear,0,2013-08-21 02:53:00
10:53 PM,75.0,72.0,90,30.05,10.0,Calm,Calm,-,N/A,,Clear,0,2013-08-21 03:53:00
11:53 PM,73.9,72.0,93,30.05,10.0,Calm,Calm,-,N/A,,Clear,0,2013-08-21 04:53:00